OBJECT A, 62729

Orbit data source: Space-Track

You're viewing an Uncataloged Satellite

Recently launched and/or uncataloged satellites may have evolving metadata. Metadata may include but not limited to: Owner, Maufacturer, Bus, Motor, and Mission.

OBJECT A, 62729 is a Chinese satellite in SSO that was launched on Mon, 20 Jan 2025 UTC via a GUSHENXING 1 launch vehicle from the Jiuquan Satellite Launch Center, China (JSC). Unknown objects in Earth's orbit typically refer to objects detected orbiting the Earth but have not yet been identified or cataloged. These objects could be anything from previously untracked satellites, spent rocket stages, debris from satellite collisions, or even natural meteoroids temporarily captured by Earth's gravity.

Loading next visibility...
Identifier
62729, 2025-013A
Orbit
SSO
Country
Flag of CNCN / PRC
Related business
None
Manufacturer
Unknown
Mission
Operational Commercial Meteo Radio Occ.
Bus & Motor
Unknown
Mass
Unknown
Launch date (UTC)
2025-01-20 (1 year ago)
Launch vehicle
GUSHENXING 1
Launch site
Jiuquan Satellite Launch Center, China (JSC)
Object type
Unknown
Shape & HBR
Box + 1 Pan, 0.4 m
Radar Cross Section
5.339 m², Medium (>0.1 m² and < 1m²)

Expand to show TLE details & history
Last TLE update: 7 hours ago

TLE from 7 hours ago
0 OBJECT A
1 62729U 25013A   26095.26775005  .00041343  00000-0  13674-2 0  9999
2 62729  97.6378 271.5401 0010001 191.0447 169.0576 15.31180002 66788
Epoch: 2026-04-05T06:25Z
TLE epoch observation values (Epoch: 2026-04-05T06:25:33.604Z)
Latitude
0.00003°
Longitude
-18.42554°
Altitude
482.118 km
Speed
7.621 km/s
True Right ascension
18h 06m 09s
True Declination
0° 00' 00"
Sunlit
Object was in daylight at epoch
Visualization orbit readout
Latitude
Unknown
Longitude
Unknown
Altitude
Unknown
Speed
Unknown
Apparent Right ascension
Unknown
Apparent Declination
Unknown
Sunlit
N/A
Visualization observer readout
Local Sidereal Time
19:30:22
Azimuth
Unknown
Elevation
Unknown
Doppler factor
Unknown
Orbital elements
Apogee altitude
476.1 km
Perigee altitude
462.404 km
Semi-major axis
6,847.389 km
Eccentricity
0.001
Inclination
97.6378°
RAAN
271.5401°
Arg. of periapsis
191.0447°
True anomaly
169.07933°
Mean anomaly
169.0576°
Eccentric anomaly
169.06847°
Mean motion
3.8305 °/min
Orbital period
93.98 mins
BSTAR
0.0013674
Loading maneuver chart data...
Computing Atmospheric mass density...
Loading historical data...
Loading historical data...
Loading historical data...
Loading historical data...
Loading historical data...
Loading historical data...
Loading historical data...
Other satellites on launch #13 in the year 2025 (2025-01-20 UTC)

Documentation

Showing up to 5 results
|